Probability
0 0 0 0 0 0 0 0 0 0 0 0 0 0 0 0 0 0 0 0 0 0 0 0 0 0 0 0 0 0 0 0 0 0 0 0 0 0 0 0 0 0 0 0
0 0 0 0 0 0 0 0 0 0 0 0 0 0 0 0 0 0 0 0 0 0 0 0 0 0 0 0 0 0 0 0 0 0 0 0 0 0 0 0 0 0 0 0
0 0 0 0 0 0 0 0 0 0 0 0 0 0 0 0 0 0 0 0 0 0 0 0 0 0 0 0 0 0 0 0 0 0 0 0 0 0 0 0 0 0 0 0
0 0 0 0 0 0 0 0 0 0 0 0 0 0 0 0 0 0 0 0 0 0 0 0 0 0 0 0 0 0 0 0 0 0 0 0 0 0 0 0 0 0 0 0
0 0 0 0 0 0 0 0 0 0 0 0 0 0 0 0 0 0 0 0 0 0 0 0 0 0 0 0 0 0 0 0 0 0 0 0 0 0 0 0 0 0 0 0
0 0 0 0 0 0 0 0 0 0 0 0 0 0 0 0 0 0 0 0 0 0 0 0 0 0 0 0 0 0 0 0 0 0 0 0 0 0 0 0 0 0 0 0
0 0 0 0 0 0 0 0 0 0 0 0 0 0 0 0 0 0 0 0 0 0 0 0 0 0 0 0 0 0 0 0 0 0 0 0 0 0 0 0 0 0 0 0
0 0 0 0 0 0 0 0 0 0 0 0 0 0 0 0 0 0 0 0 0 0 0 0 0 0 0 0 0 0 0 0 0 0 0 0 0 0 0 0 0 0 0 0
0 0 0 0 0 0 0 0 0 0 0 0 0 0 0 0 0 0 0 0 0 0 0 0 0 0 0 0 0 0 0 0 0 0 0 0 0 0 0 0 0 0 0 0
0 0 0 0 0 0 0 0 0 0 0 0 0 0 0 0 0 0 0 0 0 0 0 0 0 0 0 0 0 0 0 0 0 0 0 0 0 0 0 0 0 0 0 0
0 0 0 0 0 0 0 0 0 0 0 0 0 0 0 0 0 0 0 0 0 0 0 0 0 0 0 0 0 0 0 0 0 0 0 0 0 0 0 0 0 0 0 0
0 0 0 0 0 0 0 0 0 0 0 0 0 0 0 0 0 0 0 0 0 0 0 0 0 0 0 0 0 0 0 0 0 0 0 0 0 0 0 0 0 0 0 0
0 0 0 0 0 0 0 0 0 0 0 0 0 0 0 0 0 0 0 0 0 0 0 0 0 0 0 0 0 0 0 0 0 0 0 0 0 0 0 0 0 0 0 0
0 0 0 0 0 0 0 0 0 0 0 0 0 0 0 0 0 0 0 0 0 0 0 0 0 0 0 0 0 0 0 0 0 0 0 0 0 0 0 0 0 0 0 0
0 0 0 0 0 0 0 0 0 0 0 0 0 0 0 0 0 0 0 0 0 0 0 0 0 0 0 0 0 0 0 0 0 0 0 0 0 0 0 0 0 0 0 0
0 0 0 0 0 0 0 0 0 0 0 0 0 0 0 0 0 0 0 0 0 0 0 0 0 0 0 0 0 0 0 0 0 0 0 0 0 0 0 0 0 0 0 0
0 0 0 0 0 0 0 0 0 0 0 0 0 0 0 0 0 0 0 0 0 0 0 0 0 0 0 0 0 0 0 0 0 0 0 0 0 0 0 0 0 0 0 0
0 0 0 0 0 0 0 0 0 0 0 0 0 0 0 0 0 0 0 0 0 0 0 0 0 0 0 0 0 0 0 0 0 0 0 0 0 0 0 0 0 0 0 0
0 0 0 0 0 0 0 0 0 0 0 0 0 0 0 0 0 0 0 0 0 0 0 0 0 0 0 0 0 0 0 0 0 0 0 0 0 0 0 0 0 0 0 0
0 0 0 0 0 0 0 0 0 0 0 0 0 0 0 0 0 0 0 0 0 0 0 0 0 0 0 0 0 0 0 0 0 0 0 0 0 0 0 0 0 0 0 0
0 0 0 0 0 0 0 0 0 0 0 0 0 0 0 0 0 0 0 0 0 0 0 0 0 0 0 0 0 0 0 0 0 0 0 0 0 0 0 0 0 0 0 0
0 0 0 0 0 0 0 0 0 0 0 0 0 0 0 0 0 0 0 0 0 0 0 0 0 0 0 0 0 0 0 0 0 0 0 0 0 0 0 0 0 0 0 0
0 0 0 0 0 0 0 0 0 0 0 0 0 0 0 0 0 0 0 0 0 0 0 0 0 0 0 0 0 0 0 0 0 0 0 0 0 0 0 0 0 0 0 0
0 0 0 0 0 0 0 0 0 0 0 0 0 0 0 0 0 0 0 0 0 0 0 0 0 0 0 0 0 0 0 0 0 0 0 0 0 0 0 0 0 0 0 0
0 0 0 0 0 0 0 0 0 0 0 0 0 0 0 0 0 0 0 0 0 0 0 0 0 0 0 0 0 0 0 0 0 0 0 0 0 0 0 0 0 0 0 0
0 0 0 0 0 0 0 0 0 0 0 0 0 0 0 0 0 0 0 0 0 0 0 0 0 0 0 0 0 0 0 0 0 0 0 0 0 0 0 0 0 0 0 0
0 0 0 0 0 0 0 0 0 0 0 0 0 0 0 0 0 0 0 0 0 0 0 0 0 0 0 0 0 0 0 0 0 0 0 0 0 0 0 0 0 0 0 0
Height
5800 5802 5805 5806 5809 5810 5812 5815 5817 5819 5820 5822 5822 5823 5824 5825 5826 5827 5829 5830 5832 5833 5835 5836 5838 5840 5841 5843 5845 5846 5848 5850 5852 5853 5855 5857 5859 5860 5861 5862 5863 5864 5864 5865
5794 5797 5799 5801 5804 5806 5808 5810 5812 5814 5816 5817 5818 5819 5821 5822 5823 5824 5826 5827 5829 5830 5832 5833 5835 5837 5838 5840 5842 5843 5845 5847 5849 5850 5853 5854 5856 5857 5859 5860 5861 5862 5862 5863
5789 5791 5793 5796 5800 5801 5803 5805 5808 5810 5813 5813 5814 5816 5817 5818 5819 5821 5823 5824 5826 5827 5829 5830 5832 5833 5835 5837 5838 5840 5842 5844 5846 5848 5849 5851 5853 5855 5856 5857 5858 5859 5860 5860
5783 5786 5787 5795 5795 5796 5798 5801 5803 5805 5807 5808 5810 5812 5813 5814 5816 5818 5819 5821 5822 5824 5826 5827 5829 5830 5831 5833 5835 5837 5839 5841 5843 5844 5846 5848 5850 5851 5852 5854 5855 5856 5857 5858
5776 5779 5783 5788 5790 5791 5794 5796 5798 5800 5802 5804 5806 5807 5809 5811 5812 5814 5815 5817 5819 5821 5822 5824 5825 5827 5828 5830 5832 5834 5836 5837 5839 5841 5843 5845 5846 5848 5849 5850 5851 5852 5853 5854
5770 5773 5777 5784 5785 5786 5789 5791 5794 5795 5798 5799 5801 5804 5806 5807 5809 5810 5812 5814 5816 5817 5819 5820 5822 5823 5825 5826 5828 5830 5832 5833 5835 5837 5839 5841 5842 5844 5845 5846 5847 5848 5850 5850
5764 5767 5772 5777 5778 5781 5785 5788 5789 5790 5793 5795 5797 5800 5802 5803 5805 5806 5808 5810 5812 5814 5815 5817 5819 5820 5821 5823 5824 5826 5827 5829 5831 5833 5835 5836 5838 5839 5841 5842 5843 5844 5846 5846
5758 5762 5769 5771 5773 5776 5779 5781 5783 5785 5788 5790 5793 5794 5796 5799 5801 5803 5804 5806 5808 5810 5812 5813 5815 5816 5817 5818 5820 5821 5823 5825 5826 5828 5830 5832 5833 5835 5836 5838 5839 5840 5841 5842
5754 5759 5762 5765 5767 5770 5772 5775 5777 5780 5783 5785 5788 5790 5792 5794 5796 5798 5800 5803 5804 5806 5808 5809 5811 5812 5813 5814 5816 5817 5819 5820 5822 5824 5825 5827 5829 5830 5832 5833 5834 5835 5836 5837
5747 5751 5755 5758 5761 5764 5767 5770 5773 5775 5778 5780 5783 5785 5788 5790 5792 5794 5796 5798 5800 5802 5803 5805 5806 5808 5809 5810 5811 5813 5814 5816 5818 5819 5821 5822 5824 5826 5827 5828 5829 5830 5831 5832
5740 5745 5748 5752 5755 5759 5762 5765 5768 5771 5773 5776 5778 5780 5783 5785 5787 5789 5791 5793 5795 5796 5798 5800 5801 5803 5804 5805 5807 5808 5810 5812 5813 5815 5816 5818 5819 5821 5822 5823 5824 5825 5826 5827
5734 5739 5742 5747 5750 5753 5757 5760 5763 5766 5768 5771 5773 5776 5778 5780 5782 5784 5786 5788 5789 5791 5793 5795 5796 5798 5799 5801 5802 5804 5805 5807 5808 5810 5811 5813 5814 5815 5817 5818 5819 5820 5820 5821
5727 5731 5736 5740 5744 5747 5751 5754 5757 5760 5763 5766 5768 5771 5773 5775 5777 5779 5781 5782 5784 5786 5788 5789 5791 5793 5794 5796 5797 5798 5800 5801 5803 5804 5806 5807 5808 5810 5811 5812 5813 5814 5814 5815
5720 5724 5729 5733 5737 5741 5745 5748 5751 5754 5758 5761 5763 5765 5767 5770 5772 5774 5775 5777 5779 5780 5782 5784 5786 5787 5789 5790 5792 5793 5795 5796 5797 5799 5800 5802 5803 5804 5805 5806 5807 5807 5808 5808
5714 5718 5722 5727 5731 5735 5738 5742 5746 5749 5752 5755 5758 5760 5762 5765 5767 5768 5770 5772 5774 5775 5777 5779 5780 5782 5784 5785 5786 5788 5789 5790 5792 5793 5794 5796 5797 5798 5798 5799 5800 5801 5802 5802
5707 5711 5715 5720 5725 5729 5732 5736 5740 5743 5746 5749 5752 5755 5757 5759 5761 5763 5765 5767 5769 5770 5772 5773 5775 5776 5778 5780 5781 5782 5783 5785 5786 5787 5788 5789 5790 5791 5792 5793 5794 5795 5795 5795
5700 5704 5709 5713 5718 5722 5726 5730 5733 5737 5740 5743 5746 5749 5751 5754 5756 5758 5759 5761 5763 5764 5766 5768 5769 5771 5772 5774 5775 5776 5777 5779 5780 5781 5782 5783 5784 5785 5786 5786 5787 5788 5788 5788
5692 5697 5702 5707 5711 5716 5720 5723 5727 5730 5734 5737 5740 5743 5746 5748 5750 5752 5754 5756 5757 5759 5761 5762 5764 5765 5766 5768 5769 5770 5771 5772 5774 5775 5776 5777 5778 5778 5779 5780 5780 5780 5780 5780
5685 5690 5695 5700 5704 5709 5713 5717 5720 5724 5727 5731 5734 5737 5739 5742 5744 5747 5749 5750 5752 5753 5755 5756 5757 5759 5760 5761 5763 5764 5765 5766 5768 5769 5770 5770 5771 5772 5772 5772 5772 5772 5772 5772
5678 5683 5688 5693 5697 5702 5706 5710 5713 5717 5721 5724 5727 5730 5733 5736 5738 5741 5743 5745 5746 5748 5749 5750 5751 5753 5754 5755 5757 5758 5759 5760 5761 5762 5763 5763 5764 5764 5765 5765 5765 5764 5764 5763
5672 5677 5681 5686 5690 5694 5698 5702 5706 5710 5714 5718 5721 5724 5727 5729 5732 5734 5736 5738 5740 5742 5743 5744 5745 5746 5748 5749 5750 5751 5752 5753 5754 5755 5756 5756 5757 5757 5757 5757 5756 5756 5755 5754
5665 5670 5674 5679 5682 5687 5691 5695 5699 5703 5707 5710 5714 5717 5720 5722 5725 5728 5730 5732 5734 5735 5737 5738 5739 5740 5741 5742 5744 5744 5745 5746 5747 5747 5748 5748 5748 5748 5748 5748 5747 5746 5746 5744
5658 5663 5667 5672 5676 5680 5684 5688 5692 5696 5700 5703 5707 5710 5713 5715 5718 5721 5723 5725 5727 5728 5730 5731 5732 5734 5735 5736 5736 5737 5738 5738 5739 5739 5739 5740 5740 5740 5739 5739 5738 5737 5736 5734
5652 5657 5661 5665 5669 5673 5677 5682 5685 5689 5693 5696 5700 5703 5706 5709 5712 5714 5716 5718 5720 5722 5723 5724 5725 5727 5728 5728 5729 5730 5730 5730 5730 5731 5731 5731 5731 5731 5730 5730 5729 5727 5726 5724
5646 5650 5654 5658 5662 5667 5671 5675 5678 5682 5685 5689 5692 5696 5699 5702 5704 5707 5709 5711 5713 5715 5716 5717 5718 5719 5720 5721 5721 5722 5722 5722 5722 5722 5722 5722 5722 5721 5721 5720 5719 5717 5716 5714
5639 5643 5648 5652 5656 5660 5664 5668 5672 5675 5679 5682 5686 5689 5692 5695 5697 5700 5702 5704 5706 5708 5709 5710 5711 5712 5713 5713 5714 5714 5714 5714 5714 5713 5713 5712 5712 5711 5711 5710 5709 5707 5706 5704
5633 5637 5641 5645 5649 5654 5658 5661 5665 5669 5672 5676 5679 5682 5685 5688 5690 5693 5695 5697 5699 5700 5702 5703 5704 5705 5705 5705 5706 5706 5706 5705 5705 5704 5704 5703 5702 5702 5701 5699 5698 5697 5695 5693
Wind_Speed
25 24 23 23 22 21 21 20 18 16 15 14 14 14 14 13 13 13 14 14 14 15 14 14 14 14 14 14 15 15 15 14 14 14 15 14 13 12 12 12 11 10 9 9
26 25 24 24 23 22 21 20 19 18 17 16 16 15 15 14 13 14 14 14 14 14 14 13 14 14 15 15 15 15 15 15 15 15 16 16 15 14 13 13 13 12 11 11
26 26 25 24 22 22 22 20 19 18 17 18 17 16 15 15 15 14 14 15 14 14 14 14 14 15 15 15 15 15 16 16 16 16 16 16 16 15 15 14 14 13 13 13
27 27 28 23 22 23 22 21 19 17 18 18 17 17 16 15 14 15 15 16 16 15 15 15 14 15 15 16 16 16 16 16 17 17 17 17 16 16 15 15 15 15 15 14
29 29 26 24 23 23 23 21 20 18 18 18 17 18 17 16 15 15 15 16 15 15 15 15 15 15 16 16 17 17 17 16 17 18 18 17 17 17 17 16 16 15 15 15
30 29 26 23 23 23 23 22 20 19 18 18 18 18 17 17 16 16 16 17 16 15 15 14 14 14 14 15 16 17 18 18 18 18 19 19 19 18 18 17 17 17 17 17
31 29 25 22 23 23 23 21 21 20 19 19 18 17 18 18 17 17 17 17 17 16 15 15 14 14 15 16 16 17 17 18 18 19 19 20 19 19 19 18 18 18 18 18
30 29 25 22 23 23 22 22 21 21 20 20 19 19 19 18 18 18 18 17 17 17 17 16 16 16 16 17 17 17 17 18 18 18 18 19 19 19 19 20 20 19 19 19
28 26 25 23 23 23 23 22 22 21 21 21 20 20 20 19 19 19 19 19 18 18 18 18 18 17 17 17 18 17 17 18 18 18 18 18 18 18 18 19 19 20 19 19
29 28 26 25 23 23 23 21 22 22 21 20 20 21 21 20 20 20 20 20 19 19 19 19 19 19 18 18 18 18 18 18 18 17 18 19 18 19 19 19 20 20 20 20
30 28 27 26 25 24 23 22 21 22 20 20 21 20 20 20 21 20 20 20 20 20 20 20 20 20 19 19 18 19 19 18 18 18 19 20 19 20 20 20 20 21 21 22
29 28 28 27 26 25 24 23 22 21 21 21 21 21 21 21 20 20 20 20 21 21 21 20 20 20 20 20 19 19 19 19 19 19 20 21 21 21 21 21 21 21 22 22
29 29 29 28 28 27 26 25 24 23 22 21 21 20 21 21 21 21 20 20 21 21 21 20 20 20 20 19 19 20 20 20 21 20 20 21 22 22 22 22 22 22 22 22
30 30 29 29 29 28 27 26 25 24 23 22 21 21 20 21 21 20 20 20 20 20 20 21 20 20 20 20 20 20 20 21 21 22 22 22 22 23 23 24 24 23 24 24
31 31 30 29 29 29 28 26 25 25 24 23 23 22 21 21 21 20 20 20 20 20 20 20 20 20 20 20 20 20 20 21 21 22 22 22 23 23 23 24 24 24 24 25
31 31 30 30 30 29 28 27 26 26 25 24 24 23 22 21 21 21 20 20 20 20 20 21 21 21 21 21 21 21 21 21 22 22 22 22 23 23 23 23 23 24 25 25
31 31 30 30 29 29 28 27 26 25 25 24 24 23 22 21 20 20 20 21 20 20 20 21 22 22 21 22 22 21 21 21 22 23 23 23 23 23 23 23 24 24 25 26
32 31 31 30 30 30 29 28 27 26 26 25 24 23 22 22 21 20 20 21 21 21 21 21 21 22 23 23 22 21 21 21 21 22 24 24 24 24 24 24 25 25 26 27
33 32 32 31 31 30 30 28 27 26 26 25 26 25 24 23 22 22 21 20 20 20 21 22 22 22 22 22 22 22 21 21 21 22 22 23 23 24 24 24 25 26 27 28
32 32 32 31 30 30 30 29 28 28 27 26 26 26 25 24 24 24 23 21 21 21 21 22 22 22 22 22 21 22 22 22 22 22 22 23 23 24 25 26 27 28 28 29
30 30 30 30 30 30 30 29 29 29 28 27 27 27 26 25 25 24 24 23 22 21 21 21 21 21 22 22 22 22 22 22 23 23 24 24 25 25 26 28 28 29 29 30
30 30 29 30 30 30 29 29 29 29 29 28 28 27 27 26 25 25 24 23 23 22 22 22 21 21 21 22 22 23 24 24 25 25 25 26 27 27 27 28 28 28 29 31
29 29 29 30 29 29 28 28 29 29 28 27 27 26 26 26 25 25 24 24 23 23 22 22 21 21 22 22 23 23 24 25 26 26 27 27 27 27 28 28 29 29 30 31
29 30 30 30 29 28 28 28 29 28 28 28 27 26 26 26 26 25 24 24 24 23 23 23 23 22 22 22 23 24 25 25 26 26 27 28 28 29 29 29 30 30 31 32
29 29 30 30 29 29 29 28 28 28 28 28 27 26 26 26 25 24 24 24 24 24 23 23 23 23 23 23 24 25 25 26 26 27 27 28 29 30 30 30 30 31 32 32
29 29 29 29 29 29 29 28 28 27 27 27 27 27 26 25 25 24 24 24 24 24 24 24 24 24 24 24 24 25 25 26 27 27 27 28 29 30 30 31 32 33 33 34
29 29 29 28 28 28 28 28 28 28 28 28 27 27 26 26 26 26 25 24 24 24 24 24 25 25 25 25 25 26 27 27 28 28 29 29 30 31 32 33 34 34 34 34
Wind_Direction
242 241 242 242 241 242 245 245 245 244 244 241 243 241 242 243 241 240 240 237 231 226 225 227 229 229 229 228 226 226 226 228 228 230 230 229 229 228 230 232 235 237 241 247
239 239 240 241 241 243 246 247 246 242 240 237 239 242 242 241 239 238 237 233 229 228 229 233 234 232 230 229 228 227 227 229 231 231 232 232 232 231 234 237 240 242 245 248
238 238 239 239 240 243 245 248 247 243 238 236 237 239 240 239 237 236 233 229 227 229 232 235 236 236 233 230 228 227 230 233 233 229 229 231 233 235 238 241 245 249 251 247
239 238 239 237 239 242 244 245 244 241 237 235 235 235 238 238 235 234 235 231 229 229 233 236 237 235 233 232 230 228 233 237 234 229 229 232 236 239 241 242 245 250 251 249
238 239 239 238 240 242 243 243 243 241 237 235 235 234 236 236 235 235 234 232 232 232 234 236 238 236 235 234 235 234 236 238 235 233 233 234 237 240 243 244 246 248 249 252
237 238 239 238 241 241 242 242 241 240 238 236 234 234 233 234 233 233 233 232 234 235 236 237 239 238 237 236 235 236 237 240 240 239 238 239 241 245 245 245 247 249 252 254
237 239 237 236 238 238 239 239 239 238 237 236 235 233 233 233 230 230 230 232 233 234 237 239 239 241 242 239 238 238 239 239 240 239 239 240 244 246 246 246 247 250 254 255
237 238 235 235 236 236 237 237 238 237 236 235 234 232 231 231 230 230 232 233 234 236 238 239 240 243 245 243 242 243 243 242 242 240 240 242 244 244 245 247 249 251 254 256
236 237 235 234 235 235 236 236 234 234 234 234 232 230 230 231 232 231 233 235 238 239 241 242 244 247 247 245 244 243 244 244 245 246 246 246 246 246 247 249 250 252 255 257
232 232 231 232 231 233 233 234 233 233 235 234 231 231 231 232 232 232 235 237 240 242 244 246 246 247 248 248 246 244 244 244 244 246 247 248 247 248 249 253 254 254 256 258
231 230 230 231 231 232 231 231 232 232 233 234 232 230 232 234 234 236 237 240 240 242 244 247 247 247 248 249 248 246 245 246 246 248 249 249 250 251 252 254 256 257 258 260
230 228 229 229 230 231 231 229 229 231 234 235 236 234 233 233 236 237 238 240 241 241 244 247 248 248 249 249 249 246 246 246 247 250 251 251 252 254 255 257 258 260 261 262
226 225 226 227 228 228 228 228 229 231 234 237 238 237 235 235 237 238 240 242 241 241 242 245 246 248 250 251 248 246 246 246 247 250 252 252 253 254 256 258 259 261 262 265
226 226 226 226 226 226 227 228 229 230 233 235 237 237 238 237 236 238 240 241 239 240 242 244 245 246 248 250 250 250 250 249 249 251 251 252 255 256 258 258 261 261 264 266
228 229 229 227 226 226 226 227 228 229 231 234 235 237 237 237 236 237 238 240 241 243 243 244 245 246 248 251 252 252 253 252 251 253 254 255 258 260 260 259 260 263 266 268
228 230 230 228 226 225 226 228 229 230 231 232 233 234 235 236 238 239 239 241 242 242 243 244 245 247 248 251 252 253 253 253 253 253 256 258 260 260 261 261 262 265 267 270
227 229 229 226 224 223 225 227 227 228 230 231 231 232 235 238 239 241 242 243 243 242 242 244 246 248 249 252 253 254 253 253 254 255 256 259 260 260 261 263 264 267 270 272
225 225 225 224 223 223 225 225 226 228 230 232 231 231 233 235 237 242 244 243 244 245 245 245 247 249 251 252 254 256 256 256 258 259 259 260 260 262 265 267 268 268 270 272
222 221 222 221 221 221 223 226 227 228 230 232 232 232 234 236 237 240 242 244 246 247 248 250 252 252 252 253 255 256 257 258 259 260 261 261 262 263 266 269 270 270 271 273
222 222 222 222 222 224 224 226 227 228 230 233 234 235 236 236 238 240 242 244 246 249 251 251 250 250 253 255 256 257 257 257 258 260 262 263 264 265 268 271 272 272 273 274
222 223 223 223 224 224 224 225 227 229 231 232 233 235 236 238 239 239 241 244 247 249 252 253 253 254 255 257 258 260 260 260 262 263 264 266 268 269 270 273 275 275 275 276
220 221 222 223 224 225 224 225 228 230 232 233 233 235 236 237 237 239 241 244 247 250 252 254 255 257 258 260 261 262 261 262 264 266 267 268 270 272 273 275 276 277 278 278
221 222 223 223 224 224 225 226 228 230 232 233 234 234 235 237 239 241 243 245 248 251 254 256 258 259 261 262 263 264 265 265 266 267 268 270 271 273 274 275 277 279 281 282
221 222 222 222 223 224 225 227 229 231 232 233 234 235 237 239 240 241 243 247 250 253 254 255 257 260 261 263 265 266 267 268 269 269 270 270 271 272 274 276 278 281 283 284
222 223 224 224 223 224 225 227 228 230 231 232 234 235 236 237 238 241 244 247 251 253 255 257 259 260 261 263 265 268 269 271 272 272 271 272 272 273 275 276 278 281 283 285
222 223 224 224 223 224 225 227 228 228 229 231 232 234 236 238 240 243 245 248 251 254 256 257 259 261 263 264 265 268 270 271 272 272 273 273 274 274 275 276 279 282 284 285
222 223 224 224 224 225 226 227 228 228 229 231 232 235 237 240 242 244 246 248 251 253 255 257 260 262 264 265 267 269 271 273 273 274 275 275 275 277 278 279 281 282 284 285